星链-2247 (STARLINK-2247 )

导读

STARLINK-2247是美国太空探索技术公司(SpaceX)旗下星链(Starlink)星座的组网卫星,于2021年5月9日发射入轨。星链计划旨在构建全球卫星互联网星座,为全球提供高速互联网接入服务,这颗卫星是该星座大规模组网进程中的一员,参与低轨星座部署,助力实现全球覆盖的通信网络布局。

基本信息
目录编号:
48446
目录名称:
STARLINK-2247
国际标识:
2021-040U
轨道中心:
EARTH
卫星名称:
星链-2247
卫星全名:
星链-2247 (STARLINK-2247 )
卫星状态:
已陨落 最后检测时间 2024-09-14
发射日期:
2021-05-09 UTC
国别 :
美国 (US)
星等 :
--
该卫星已列入 空间交会检测服务 Space Conjunction Data Service (SCDS) ,当前飞行风险评估等级: 无高风险
轨道信息
数据来源 国际轨道数据
星历时间: 2024-09-14T14:22:12+0800
轨道信息已过期728天
半长轴: 6594.206km
偏心率: 0.0004879
轨道倾角: 53.043°
近地点辐角 289.086°
升交点赤经 78.255°
平近点角 225.604°
近地点: 212.853km
远地点: 219.289km
周期: 88.819分钟
每日圈数: 16.212837
详细信息
固有亮度:
5
最大亮度:
2.5
卫星平台:
Starlink V1.0
覆盖范围:
全球
运营商:
太空探索技术公司
运营商所在国:
美国
制造商(研发单位):
太空探索技术公司
制造商所在国:
美国
使用方式:
暂无
卫星简介
星链(Starlink)计划是由太空探索技术公司(SpaceX)提出的一个巨型低轨卫星互联网星座项目,计划在2019年至2024年间在太空搭建由约1.2万颗卫星组成的“星链”网络,其中1584颗将部署在地球上空550千米处的近地轨道,并从2020年开始工作。该卫星仍在工作。
与全量物体交会距离演化趋势
与全量物体交会风险概率演化趋势